Location: Marstown
(39.5056°N, 77.0820°W)
Time: 15:26:05
(UTC-05:00)

ISS - Visible Passes

Search period start: 19 November 2018 00:00
Search period end: 29 November 2018 00:00
Orbit: 401 x 408 km, 51.6° (Epoch: 20 November)

Date Brightness Start Highest point End Pass type
(mag) Time Alt. Az. Time Alt. Az. Time Alt. Az.
21 Nov -1.3 18:08:06 10° SSE 18:08:23 11° SE 18:08:23 11° SE visible
22 Nov -2.0 18:49:54 10° SW 18:51:31 26° SSW 18:51:31 26° SSW visible
23 Nov -2.7 17:58:14 10° SSW 18:01:03 28° SE 18:01:51 24° ESE visible
23 Nov -0.2 19:34:32 10° W 19:34:33 10° W 19:34:33 10° W visible
24 Nov -3.0 18:42:02 10° WSW 18:44:47 49° WNW 18:44:47 49° WNW visible
25 Nov -3.9 17:49:50 10° SW 17:53:05 75° SE 17:54:56 23° ENE visible
25 Nov -0.3 19:27:29 10° WNW 19:27:36 11° WNW 19:27:36 11° WNW visible
26 Nov -2.2 18:34:40 10° W 18:37:30 27° NNW 18:37:40 27° NNW visible
27 Nov -3.0 17:42:04 10° WSW 17:45:12 44° NNW 17:47:39 15° NE visible
28 Nov -1.6 18:27:39 10° WNW 18:29:51 17° NNW 18:30:15 16° N visible
